Weather History for Riverside, CA

Change the Weather History Date:

Wednesday, March 20, 2013

  Actual Average Record
Temperature  
Mean Temperature 62 °F 59 °F  
Max Temperature 73 °F 72 °F 97 °F (1997)
Min Temperature 51 °F 47 °F 28 °F (1894)
Degree Days  
Heating Degree Days 3 6  
Month to date heating degree days 86 144  
Since 1 July heating degree days 1102 1252  
Cooling Degree Days 0 0  
Month to date cooling degree days 28 4  
Year to date cooling degree days 31 13  
Growing Degree Days 12 (Base 50)    
Moisture  
Dew Point 49 °F    
Average Humidity 65    
Maximum Humidity 89    
Minimum Humidity 41    
Precipitation  
Precipitation 0.00 in 0.04 in 1.83 in (1893)
Month to date precipitation 0.63 1.70  
Year to date precipitation 2.11 7.68  
Since 1 July precipitation 4.02 10.89  
Snow  
Snow 0.00 in - - ()
Month to date snowfall 0.0  
Year to date snowfall 0.0  
Since 1 July snowfall 0.0  
Snow Depth 0.00 in    
Sea Level Pressure  
Sea Level Pressure 30.00 in    
Wind  
Wind Speed 3 mph (WNW)    
Max Wind Speed 13 mph    
Max Gust Speed 16 mph    
Visibility 7 miles    
Events      
T = Trace of Precipitation, MM = Missing Value Source: NWS Daily Summary

Daily Weather History Graph

Daily Weather History Graph

Search for Another Location

Airport:

Trip Planner

Search our weather history database for the weather conditions in past years. The results will help you decide how hot, cold, wet, or windy it might be!

Date:

Astronomy

Mar. 20, 2013 Rise Set
Actual Time 6:53 AM PDT 7:01 PM PDT
Civil Twilight 6:28 AM PDT 7:26 PM PDT
Nautical Twilight 5:59 AM PDT 7:55 PM PDT
Astronomical Twilight 5:29 AM PDT 8:25 PM PDT
Moon 12:55 PM PDT (3/20) 2:21 AM PDT (3/20)
Length of Visible Light 12h 58m
Length of Day
12h 08m
First Quarter, 60% of the Moon is Illuminated
Mar 20
First Quarter
Mar 27
Full
Apr 2
Last Quarter
Apr 10
New
Apr 18
First Quarter

Hourly Weather History & Observations

Time (PDT) Temp. Dew Point Humidity Pressure Visibility Wind Dir Wind Speed Gust Speed Precip Events Conditions
12:53 AM 54.0 °F 50.0 °F 86% 30.07 in 7.0 mi Calm Calm - N/A   Clear
1:53 AM 53.1 °F 48.9 °F 86% 30.04 in 6.0 mi Calm Calm - N/A   Clear
2:53 AM 54.0 °F 48.9 °F 83% 30.03 in 7.0 mi Calm Calm - N/A   Clear
3:53 AM 53.1 °F 48.9 °F 86% 30.02 in 6.0 mi Calm Calm - N/A   Clear
4:53 AM 54.0 °F 48.9 °F 83% 30.02 in 6.0 mi Calm Calm - N/A   Haze
5:53 AM 51.1 °F 48.0 °F 89% 30.01 in 5.0 mi ENE 3.5 mph - N/A   Clear
6:53 AM 52.0 °F 48.9 °F 89% 30.02 in 5.0 mi NNE 4.6 mph - N/A   Scattered Clouds
7:53 AM 53.1 °F 50.0 °F 89% 30.03 in 3.0 mi Calm Calm - N/A   Mostly Cloudy
8:53 AM 59.0 °F 50.0 °F 72% 30.04 in 4.0 mi Calm Calm - N/A   Haze
9:53 AM 63.0 °F 51.1 °F 65% 30.03 in 4.0 mi Calm Calm - N/A   Haze
10:53 AM 64.9 °F 50.0 °F 58% 30.03 in 4.0 mi Variable 3.5 mph - N/A   Haze
11:53 AM 66.9 °F 50.0 °F 54% 30.03 in 6.0 mi WNW 4.6 mph - N/A   Haze
12:53 PM 69.1 °F 48.0 °F 47% 30.02 in 7.0 mi Calm Calm - N/A   Overcast
1:53 PM 71.1 °F 48.0 °F 44% 30.00 in 9.0 mi WNW 8.1 mph - N/A   Clear
2:53 PM 72.0 °F 46.9 °F 41% 29.97 in 9.0 mi NW 5.8 mph - N/A   Clear
3:53 PM 72.0 °F 48.0 °F 43% 29.96 in 8.0 mi Variable 6.9 mph - N/A   Mostly Cloudy
4:53 PM 71.1 °F 48.9 °F 45% 29.96 in 8.0 mi West 5.8 mph - N/A   Clear
5:53 PM 69.1 °F 48.9 °F 49% 29.96 in 9.0 mi WSW 8.1 mph - N/A   Clear
6:53 PM 66.0 °F 51.1 °F 59% 29.94 in 9.0 mi WNW 4.6 mph - N/A   Clear
7:53 PM 63.0 °F 50.0 °F 63% 29.95 in 10.0 mi WNW 4.6 mph - N/A   Clear
8:53 PM 62.1 °F 50.0 °F 65% 29.94 in 10.0 mi Calm Calm - N/A   Clear
9:53 PM 61.0 °F 50.0 °F 67% 29.95 in 8.0 mi North 3.5 mph - N/A   Clear
11:53 PM 57.0 °F 48.0 °F 72% 29.94 in 10.0 mi WSW 3.5 mph - N/A   Clear